Location: Unspecified
(0.0000°N, 0.0000°E)
Time: 23:32:00
(UTC+00:00)

Tiangong 2 - Pass Details

Date: 12 January 2019
Orbit: 380 x 392 km, 42.8° (Epoch: 19 January)

Event Time Altitude Azimuth Distance (km) Brightness Sun altitude
Exits shadow 04:34:46 15° 34° (NE) 1,167 3.6 -21.6°
Drops below altitude 10° 04:35:21 10° 36° (NE) 1,402 4.0 -21.5°
Sets 04:37:26 0° 40° (NE) 2,256 5.2 -21.0°
